Regional Weather Roundup
Issued by NWS

Home | Current Version | Previous Version | Text Only | Print | Product List | Glossary On
Versions: 1 2 3 4 5 6 7 8 9 10 11 12 13 14 15 16 17 18 19 20 21 22 23 24 25 26 27 28 29 30 31 32 33 34 35 36 37 38 39 40 41 42 43 44 45 46 47 48 49 50
000
ASUS45 KTFX 110910
RWRMT
MONTANA REGIONAL WEATHER ROUNDUP
NATIONAL WEATHER SERVICE GREAT FALLS MT
200 AM MST MON DEC 11 2017

NOTE: "FAIR" INDICATES FEW OR NO CLOUDS BELOW 12000 FEET WITH NO
SIGNIFICANT WEATHER AND/OR OBSTRUCTIONS TO VISIBILITY.

MTZ001>007-043-111000-
WEST OF THE DIVIDE

CITY           SKY/WX    TMP DP  RH WIND       PRES   REMARKS
KALISPELL      CLOUDY    24  21  88 W5        30.62S
MISSOULA       CLOUDY    17  16  95 SW3       30.63S FOG
BUTTE          FAIR       9   4  80 SE3       30.52F
MULLAN PASS    FAIR      37  32  82 S7        30.48S WCI  32
ANACONDA         N/A     16  10  79 CALM      30.53S
DEER LODGE       N/A     10   9  92 CALM      30.56S
EUREKA           N/A    N/A N/A N/A MISG      30.67S
HAMILTON         N/A     16  10  79 CALM      30.60S VSB 1/4
LIBBY            N/A     18  16  93 CALM      30.63S
RONAN            N/A     24  20  85 S2        30.59S
$$

MTZ008-052>055-111000-
SOUTHWEST MONTANA

CITY           SKY/WX    TMP DP  RH WIND       PRES   REMARKS
BOZEMAN        FAIR      16   9  74 CALM      30.51S
DILLON         FAIR      21   9  59 S10       30.51S WCI  10
W YELLOWSTONE  FAIR      -6  -9  84 CALM      30.59F
ENNIS          CLOUDY    27  12  54 S6        30.56S WCI  20
THREE FORKS      N/A      6   1  80 CALM      30.43F
$$

MTZ009-010-012-014-046-048-049-054-111000-
EAST SLOPES AND CENTRAL MONTANA

CITY           SKY/WX    TMP DP  RH WIND       PRES   REMARKS
CUT BANK       FAIR      29  14  53 NW8       30.40S WCI  21
GREAT FALLS    FAIR      29  12  49 CALM      30.42F
MALMSTROM AFB  FAIR      26  15  61 CALM      30.42F
HELENA         FAIR      19  15  84 CALM      30.50F
BOWMANS CRNR   FAIR      32  12  43 SW13      30.40S WCI  23
CHOTEAU          N/A     32  14  47 S3        30.43R
FAIRFIELD      FAIR      31  13  48 SE5       30.41R
POWER          FAIR      23  12  61 CALM      30.40F
RAYNESFORD     FAIR      31  15  50 CALM      30.42S
ULM            FAIR      28  16  61 SE6       30.42R WCI  22
$$

MTZ011-013-016-021-045-047-050-051-111000-
NORTH CENTRAL MONTANA

CITY           SKY/WX    TMP DP  RH WIND       PRES   REMARKS
HAVRE          FAIR      26  16  65 W6        30.39S WCI  19
LEWISTOWN      FAIR      30  18  60 W14       30.40R WCI  19
N BAR RANCH    FAIR      37  14  38 NW17G24   30.36S WCI  28
CHINOOK          N/A     28  18  64 W8        30.37R WCI  20
DENTON         FAIR      35  14  43 SW6       30.37R WCI  30
GEYSER         FAIR      34  14  42 SW9       30.39S WCI  27
GRASS RANGE    FAIR      37  18  46 W16G24    30.33R WCI  27
STANFORD       FAIR      34  15  44 NW6       30.40S WCI  29
WINIFRED       FAIR      31  16  53 W9        30.38R WCI  23
$$

MTZ017>020-022>027-061-062-111000-
NORTHEAST MONTANA

CITY           SKY/WX    TMP DP  RH WIND       PRES   REMARKS
GLASGOW        FAIR      38  23  55 NW21G29   30.23R WCI  28
GLENDIVE       FAIR      39  24  55 NW24G36   30.16R WCI  28
JORDAN           N/A     42  20  41 NW23      30.27S
SIDNEY         CLOUDY    41  29  62 NW24G33   30.13R
WOLF POINT     FAIR      42  27  55 NW29G38   30.18R
MALTA          CLEAR     39  21  48 W13       30.32R WCI  32
PLENTYWOOD       N/A     37  30  75 NW38G46   30.02R WCI  24
POPLAR           N/A     39  28  65 NW25G33   30.14R WCI  28
$$

MTZ028>42-056>058-111000-
SOUTHCENTRAL AND SOUTHEAST MONTANA

CITY           SKY/WX    TMP DP  RH WIND       PRES   REMARKS
BAKER          FAIR      38  25  59 NW20G32   30.16R WCI  28
BILLINGS       FAIR      38  14  37 SW8       30.36S
LIVINGSTON     FAIR      43  12  28 SW24      30.43R
MILES CITY     FAIR      42  21  43 NW20G31   30.25R
BIG TIMBER     PTCLDY    45   9  23 W25G36    30.40S
EKALAKA          N/A     39  17  41 W18       30.15R WCI  29
FORSYTH          N/A     39  18  41 W8        30.32R
LAUREL           N/A     32  16  51 SW8       30.38  WCI  25
ROUNDUP          N/A     43  11  27 W5        30.24S
$$

REGIONAL REPORTS...DAKOTAS

CITY           SKY/WX    TMP DP  RH WIND       PRES   REMARKS
WILLISTON      CLOUDY    40  29  64 NW31G45   30.08R
MINOT          CLOUDY    41  33  73 NW26G37   29.88R
DICKINSON      CLOUDY    39  28  64 NW26G36   30.01R WCI  28
BEACH          CLOUDY    36  25  64 NW26G32   30.14S WCI  23
CROSBY         CLOUDY    36  34  93 NW35G46   30.01R WCI  22
TIOGA          CLOUDY    36  36 100 NW32G41   30.00R WCI  22
BISMARCK       CLOUDY    45  33  63 NW30G41   29.91R
GRAND FORKS    CLOUDY    37  31  78 NW15      29.68R WCI  28
FARGO          MOCLDY    34  31  88 S6        29.70S WCI  29
BUFFALO SD       N/A     44  21  40 NW41G51   30.05
RAPID CITY     FAIR      50  14  23 NW35G45   30.15R
$$

REGIONAL REPORTS...WYOMING/IDAHO/WASHINGTON

CITY           SKY/WX    TMP DP  RH WIND       PRES   REMARKS
GILLETTE       FAIR      34  15  46 W12       30.28S WCI  25
SHERIDAN       FAIR      35  14  42 VRB5      30.34R
BUFFALO WY     FAIR      44   6  21 NW17      30.33R
CODY           FAIR      34   7  32 CALM      30.39
YELLOWSTONE LA   N/A      4   1  88 CALM      30.58F
IDAHO FALLS    FAIR      11   9  92 N7        30.59F WCI   0
SALMON         CLOUDY    16  14  92 VRB3      30.74S
BOISE          CLOUDY    25  20  81 SE6       30.67F WCI  18
SPOKANE        CLOUDY    25  24  96 N6        30.59S WCI  18
$$

REGIONAL REPORTS...ALBERTA

CITY           SKY/WX    TMP DP  RH WIND       PRES   REMARKS
EDMONTON       CLEAR     34  21  60 W10       30.32R WCI  26
LETHBRIDGE     CLEAR     23  14  68 S6        30.39S WCI  16
MEDICINE HAT   CLEAR     27  19  74 SW7       30.38R WCI  19
$$

REGIONAL REPORTS...SASKATCHEWAN

CITY           SKY/WX    TMP DP  RH WIND       PRES   REMARKS
SWIFT CURRENT  CLOUDY    34  25  69 W17G24    30.25R WCI  23
REGINA         CLOUDY    34  30  86 NW21G31   30.11R WCI  22
SASKATOON      CLOUDY    34  30  86 NW12      30.19R WCI  25
$$



USA.gov is the U.S. government's official web portal to all federal, state and local government web resources and services.